Regional Weather Roundup
Issued by NWS Northern Indiana

Home | Current Version | Previous Version | Text Only | Print | Product List | Glossary Off
Versions: 1 2 3 4 5 6 7 8 9 10 11 12 13 14 15 16 17 18 19 20 21 22 23 24 25 26 27 28 29 30 31 32 33 34 35 36 37 38 39 40 41 42 43 44 45 46 47 48 49 50

000
ASUS43 KIWX 222300
RWRIWX

KIWX WEATHER ROUNDUP
NATIONAL WEATHER SERVICE NORTHERN INDIANA
700 PM EDT TUE JUL 22 2014

NOTE: "FAIR" INDICATES FEW OR NO CLOUDS BELOW 12,000 FEET WITH NO
SIGNIFICANT WEATHER AND/OR OBSTRUCTIONS TO VISIBILITY.

* THESE STATIONS ARE NOT UNDER NWS QUALITY CONTROL. THEY ALSO MAY NOT
  REPORT WEATHER SUCH AS PRECIPITATION OR FOG.

INZ001>027-230000-
NORTHERN INDIANA

CITY           SKY/WX    TMP DP  RH WIND       PRES   REMARKS
GARY*          MOSUNNY   86  72  62 S10G23    29.96F
VALPARAISO     MOSUNNY   85  71  63 SW16G22   29.99R
SOUTH BEND     SUNNY     87  68  52 SW12G22   30.00R
ELKHART*       SUNNY     86  64  48 SW14      29.99R
GOSHEN         SUNNY     87  69  54 S13       29.97F
ANGOLA*        SUNNY     86  68  54 SW13      29.98F
FORT WAYNE     MOSUNNY   87  65  47 SW13      30.01S
PERU/GRISSOM   SUNNY     86  71  61 SW13      30.00F

$$
INZ028>050-230000-
CENTRAL INDIANA

CITY           SKY/WX    TMP DP  RH WIND       PRES   REMARKS
LAFAYETTE      SUNNY     84  70  62 SW8       30.00S
KOKOMO*        SUNNY     86  70  58 SW9G16    30.01S
MUNCIE*        SUNNY     87  65  47 SW8       30.02F
INDIANAPOLIS   MOSUNNY   84  67  56 SW12      30.02F

$$
MIZ043>046-050>051-056>058-064>065-071>073-077>080-230000-
SOUTHWEST LOWER MICHIGAN

CITY           SKY/WX    TMP DP  RH WIND       PRES   REMARKS
BATTLE CREEK   SUNNY     85  67  54 SW13      29.97S
BENTON HARBOR  CLOUDY    84  69  60 SW13      29.96R
COLDWATER*     SUNNY     85  67  54 SW10G16   29.97F
HILLSDALE*     SUNNY     85  67  53 SW8       29.99F
HOLLAND        CLOUDY    84  69  60 SW13      29.96R
GRAND RAPIDS   CLOUDY    86  70  58 SW12      29.95R
KALAMAZOO      MOSUNNY   86  68  54 SW16      29.97R
STURGIS*       SUNNY     82  70  65 S10G16    29.97S
THREE RIVERS*  FAIR      84  71  64 SW9       29.98R

$$
OHZ001>008-015>018-024>025-230000-
NORTHWEST OHIO

CITY           SKY/WX    TMP DP  RH WIND       PRES   REMARKS
DEFIANCE       SUNNY     88  65  46 S14       29.98F
FINDLAY        SUNNY     87  64  46 SW12      30.00F
TOLEDO EXPRESS MOSUNNY   87  66  49 S9        29.98F
TOLEDO METCALF SUNNY     89  64  43 SW13      29.99S
LIMA           SUNNY     87  66  49 SW10      30.02F

$$
&&


USA.gov is the U.S. government's official web portal to all federal, state and local government web resources and services.